860  
ASUS44 KEWX 071913  
RWREWX  
SOUTH TEXAS REGIONAL WEATHER ROUNDUP  
NATIONAL WEATHER SERVICE AUSTIN/SAN ANTONIO TX  
200 PM CDT SUN AUG 07 2022  
 
NOTE: "FAIR" INDICATED FEW OR NO CLOUDS BELOW 12,000 FEET WITH NO  
SIGNIFICANT WEATHER AND/OR S TO VISIBILITY
.  
 
* - THESE STATIONS ARE NOT NWS OR FAA STATIONS...AND ARE NOT SUBJECT  
TO NWS AND FAA QUALITY CONTROL.
 
 
TXZ171-172-183>190-072000-  
TEXAS HILL COUNTRY AND EDWARDS PLATEAU  
 
CITY SKY/WX TMP DP RH WIND PRES REMARKS
 
JUNCTION MOSUNNY 93 60 33 S6G18 30.09F HX 93  
*LLANO PTSUNNY 95 61 31 S12 30.07F HX 95  
BURNET MOSUNNY 94 63 35 S12G20 30.11F HX 95  
*HORSESHOE BAY MOSUNNY 96 59 28 SE5G20 30.09F HX 95  
*LAGO VISTA PTSUNNY 96 64 34 SW8G18 30.11F HX 97  
*KERRVILLE MOSUNNY 92 61 36 SE18 30.11F HX 92  
*FREDERICKSBRG MOSUNNY 92 62 35 S13G18 30.11F HX 92  
*ROCKSPRINGS SUNNY 90 57 33 S15 30.17F  
*BOERNE MOSUNNY 88 63 42 S10 30.11F  
*CASTROVILLE MOSUNNY 97 61 30 SE10G16 30.07F HX 97  
HONDO SUNNY 96 65 35 SE10G21 30.07F HX 98  
*UVALDE MOSUNNY 93 64 37 S9G22 30.08F HX 95  
DEL RIO SUNNY 95 65 37 SE17G24 30.03F HX 97  
*LAUGHLIN AFB MOSUNNY 93 62 35 SE15G21 30.02F HX 94  
*SPOFFORD MOSUNNY 93 65 39 SE14 29.98F HX 95  
CARRIZO SPRGS NOT AVBL  
*FAITH RANCH SUNNY 97 63 32 SE12G23 30.04F HX 98  

 
 
TXZ173-191>194-202-209-217>225-228-072000-  
CENTRAL AND SOUTH CENTRAL TEXAS  
 
CITY SKY/WX TMP DP RH WIND PRES REMARKS
 
GEORGETOWN SUNNY 94 64 37 CALM 30.09F HX 95  
*TAYLOR MOSUNNY 95 67 38 S13G18 30.07F HX 99  
AUSTIN/BERGSTM MOSUNNY 95 65 37 CALM 30.06F HX 97  
AUSTIN/MABRY MOSUNNY 98 64 32 VRB7 30.08F HX 100  
*PFLUGERVILLE NOT AVBL  
SAN MARCOS MOSUNNY 96 67 38 S7 30.07F HX 100  
NEW BRAUNFELS PTSUNNY 94 68 42 S12G17 30.05F HX 98  
*RANDOLPH AFB MOSUNNY 94 64 36 CALM 30.04F HX 96  
*SEGUIN MOSUNNY 96 65 35 SE14 30.03F HX 98  
SAN ANTONIO PTSUNNY 94 66 39 S10G20 30.08F HX 97  
STINSON FIELD MOSUNNY 96 67 38 SE17G26 30.04F HX 100  
*KELLY FIELD MOSUNNY 97 66 35 SE13 30.04F HX 100  
*PLEASANTON PTSUNNY 96 67 38 SE5 30.05F HX 100  
*KENEDY PTSUNNY 97 68 38 SE14 30.05F HX 102  
*LA GRANGE MOSUNNY 95 70 44 SW6 30.05F HX 101  
*GIDDINGS MOSUNNY 93 70 46 SW3 30.07F HX 99  
*GONZALES PTSUNNY 96 70 43 E7 30.05F HX 102  

 
 
TXZ163>164-176>182-195>201-210>213-226-227-235-072000-  
SOUTHEAST TEXAS  
 
CITY SKY/WX TMP DP RH WIND PRES REMARKS
 
COLLEGE STN MOSUNNY 98 65 33 S14G20 30.06F HX 101  
*BRYAN MOSUNNY 96 65 36 S8 30.09F HX 98  
*CALDWELL MOSUNNY 97 67 37 SE8 30.07F HX 101  
*CROCKETT PTSUNNY 93 70 46 SW6 30.08F HX 99  
*BRENHAM PTSUNNY 96 68 40 SE5 30.07F HX 101  
HUNTSVILLE MOSUNNY 99 68 36 MISG 30.08F HX 104  
CONROE MOSUNNY 94 69 44 VRB5 30.08F HX 99  
HOUSTON BUSH PTSUNNY 96 70 42 S12 30.07F HX 102  
HOUSTON HOBBY PTSUNNY 92 73 53 SE17G23 30.08F HX 100  
*HOUSTON SW AP MOSUNNY 96 68 40 SE12 30.08F HX 100  
PEARLAND PTSUNNY 94 71 47 SE14G21 30.09F HX 101  
HOUSTON HOOKS PTSUNNY 99 69 37 VRB6 30.07F HX 105  
ELLINGTON FLD MOSUNNY 91 77 62 SE12 30.08F HX 105  
SUGAR LAND MOSUNNY 94 71 47 SE10 30.06F HX 101  
*HOUSTON EXEC SUNNY 97 70 41 S7 30.08F HX 103  
*CLEVELAND MUN SUNNY 96 64 34 SE3 30.09F HX 98  
*WHARTON PTSUNNY 95 65 37 SE12 30.07F HX 98  
*COLUMBUS FAIR 96 69 41 CALM 30.07F HX 101  
*EAGLE LAKE MOSUNNY 98 68 37 S6 30.06F HX 103  

 
 
TXZ214>216-236>238-072000-  
THE UPPER TEXAS COAST  
 
CITY SKY/WX TMP DP RH WIND PRES REMARKS
 
*ORANGE PTSUNNY 94 75 54 S7 30.13S HX 106  
PORT ARTHUR MOSUNNY 91 75 59 E9 30.10F HX 101  
GALVESTON MOSUNNY 93 76 57 SE13 30.11F HX 105  
ANGLETON MOSUNNY 93 71 48 E10 30.08F HX 100  
*BAY CITY MOSUNNY 94 71 46 SE15 30.08F HX 100  
PALACIOS MOSUNNY 94 74 52 SE16G23 30.08F HX 104  

 
 
TXZ229>234-239>247-072000-  
TEXAS COASTAL BEND AND RIO GRANDE PLAINS  
 
CITY SKY/WX TMP DP RH WIND PRES REMARKS
 
VICTORIA MOSUNNY 95 76 53 SE18G29 30.06F HX 108  
*BEEVILLE PTSUNNY 95 64 35 SE13G18 30.04F HX 97  
ROCKPORT SUNNY 93 77 59 SE13 30.06F HX 107  
*PORT ARANSAS MOSUNNY 89 78 68 SE13 30.08F HX 103  
*PORT LAVACA MOSUNNY 94 76 55 SE16 30.07F HX 106  
*INGLESIDE SUNNY 93 75 56 S13G21 30.05F HX 104  
CORPUS CHRISTI PTSUNNY 93 75 55 SE17G31 30.05F HX 104  
CORPUS NAS SUNNY 95 77 55 SE16 30.06F HX 109  
*ROBSTOWN MOSUNNY 92 72 51 SE15G24 30.05F HX 100  
ALICE NOT AVBL  
KINGSVILLE NAS PTSUNNY 97 73 45 S16G26 30.04F HX 107  
COTULLA MOSUNNY 100 64 30 S13G24 30.03F HX 102  
LAREDO MOSUNNY 98 67 36 SE9G28 30.00F HX 102  

 
 
TXZ248>255-072000-  
DEEP SOUTH TEXAS  
 
CITY SKY/WX TMP DP RH WIND PRES REMARKS
 
BROWNSVILLE MOSUNNY 96 73 47 SE15G24 30.03F HX 105  
PORT ISABEL MOSUNNY 93 76 57 E16G26 30.04F HX 105  
HARLINGEN SUNNY 93 75 55 E10 30.02F HX 104  
*HEBBRONVILLE PTSUNNY 94 65 37 S8G21 30.04F HX 97  
MCALLEN PTSUNNY 95 69 42 E14 30.01F HX 100  
*WESLACO LGT RAIN 81 75 83 E8 30.04S  
FALFURRIAS MOSUNNY 90 73 58 E10 30.03F HX 98  
EDINBURG CLOUDY 83 76 78 E15G25 30.05S HX 91  
*ZAPATA MOSUNNY 101 62 27 SE12G21 30.02F HX 102  

 
 
TXZ213>215-236>238-242>244-246-247-251-254-255-072000-  
CMAN STATIONS  
 
STATION/POSITION TIME TEMP WIND PRES WAVE
 
AIR SEA DIR/SP/G HT/PER  
(UTC) (F) (DEG/KT/KT) (MB) (FT/S)  

 
 
 
CLICK HERE TO GO TO PREVIOUS BULLETINS.

The Nexlab TX Page Main Text Page